When you browse on this site, cookies collect data to enhance your experience and personalize the content and advertising you see.
Visit our Privacy Policy to learn more. By continuing to use the site, you agree to this use of cookies and data.
  • In Romania
  • List of Countries
  • For 7 days
  • Water Temperature
  • Satellite Maps
  • Weather Map
  • Weather Widgets
  • user-avatar
    Login

    Hourly Weather Dalat

    Today, 25 April, Thursday

    Time Temperature Precipitation Wind Pressure Humidity
    00:00 +18°C° 0 mm 1 mps 651 mmHg 75%
    01:00 +18°C° 0 mm 1 mps 650 mmHg 72%
    02:00 +18°C° 0 mm 1 mps 650 mmHg 70%
    03:00 +18°C° 0 mm 1 mps 650 mmHg 68%
    04:00 +18°C° 0 mm 1 mps 650 mmHg 66%
    05:00 +19°C° 0 mm 1 mps 651 mmHg 63%
    06:00 +20°C° 0 mm 1 mps 652 mmHg 61%
    07:00 +22°C° 0 mm 1 mps 652 mmHg 58%
    08:00 +25°C° 0 mm 1 mps 653 mmHg 49%
    09:00 +28°C° 0 mm 1 mps 654 mmHg 40%
    10:00 +31°C° 0 mm 1 mps 655 mmHg 31%
    11:00 +32°C° 0 mm 1 mps 655 mmHg 29%
    12:00 +33°C° 0 mm 1 mps 655 mmHg 27%
    13:00 +35°C° 0 mm 2 mps 655 mmHg 25%
    14:00 +34°C° 0 mm 2 mps 654 mmHg 29%
    15:00 +32°C° 0 mm 2 mps 653 mmHg 33%
    16:00 +31°C° 0 mm 2 mps 653 mmHg 36%
    17:00 +28°C° 0 mm 1 mps 652 mmHg 50%
    18:00 +25°C° 0 mm 1 mps 651 mmHg 64%
    19:00 +22°C° 0 mm 1 mps 651 mmHg 77%
    20:00 +21°C° 0 mm 1 mps 651 mmHg 81%
    21:00 +20°C° 0 mm 1 mps 651 mmHg 85%
    22:00 +19°C° 0 mm 1 mps 651 mmHg 89%
    23:00 +19°C° 0 mm 1 mps 651 mmHg 86%

    Tomorrow, 26 April, Friday

    Time Temperature Precipitation Wind Pressure Humidity
    00:00 +19°C° 0 mm 1 mps 651 mmHg 83%
    01:00 +18°C° 0 mm 1 mps 651 mmHg 80%
    02:00 +18°C° 0 mm 1 mps 650 mmHg 75%
    03:00 +18°C° 0 mm 1 mps 650 mmHg 71%
    04:00 +16°C° 0 mm 1 mps 650 mmHg 66%
    05:00 +17°C° 0 mm 0 mps 651 mmHg 61%
    06:00 +18°C° 0 mm 0 mps 651 mmHg 55%
    07:00 +20°C° 0 mm 0 mps 652 mmHg 50%
    08:00 +23°C° 0 mm 0 mps 653 mmHg 41%
    09:00 +29°C° 0 mm 1 mps 654 mmHg 32%
    10:00 +32°C° 0 mm 1 mps 656 mmHg 23%
    11:00 +33°C° 0 mm 1 mps 655 mmHg 21%
    12:00 +33°C° 0 mm 1 mps 655 mmHg 20%
    13:00 +35°C° 0 mm 2 mps 655 mmHg 18%
    14:00 +34°C° 0 mm 2 mps 654 mmHg 22%
    15:00 +32°C° 0 mm 2 mps 653 mmHg 26%
    16:00 +31°C° 0 mm 2 mps 652 mmHg 30%
    17:00 +28°C° 0 mm 1 mps 652 mmHg 46%
    18:00 +25°C° 0 mm 1 mps 651 mmHg 62%
    19:00 +21°C° 0 mm 1 mps 651 mmHg 78%
    20:00 +21°C° 0 mm 1 mps 651 mmHg 83%
    21:00 +20°C° 0 mm 1 mps 651 mmHg 88%
    22:00 +19°C° 0 mm 1 mps 652 mmHg 93%
    23:00 +19°C° 0 mm 1 mps 652 mmHg 93%

    Day after tomorrow, 27 April, Saturday

    Time Temperature Precipitation Wind Pressure Humidity
    00:00 +17°C° 0 mm 0 mps 651 mmHg 93%
    01:00 +17°C° 0 mm 0 mps 651 mmHg 93%
    02:00 +19°C° 0 mm 1 mps 651 mmHg 91%
    03:00 +19°C° 0 mm 1 mps 651 mmHg 89%
    04:00 +18°C° 0 mm 1 mps 651 mmHg 87%
    05:00 +18°C° 0 mm 0 mps 652 mmHg 80%
    06:00 +20°C° 0 mm 0 mps 653 mmHg 73%
    07:00 +21°C° 0 mm 0 mps 653 mmHg 66%
    08:00 +24°C° 0 mm 0 mps 654 mmHg 55%
    09:00 +29°C° 0 mm 1 mps 655 mmHg 44%
    10:00 +32°C° 0 mm 1 mps 656 mmHg 32%
    11:00 +32°C° 0 mm 1 mps 656 mmHg 30%
    12:00 +33°C° 0 mm 1 mps 656 mmHg 28%
    13:00 +35°C° 0 mm 2 mps 655 mmHg 26%
    14:00 +31°C° 0.1 mm 2 mps 654 mmHg 37%
    15:00 +29°C° 0.1 mm 2 mps 653 mmHg 48%
    16:00 +26°C° 0.1 mm 2 mps 651 mmHg 59%
    17:00 +24°C° 0.8 mm 1 mps 651 mmHg 70%
    18:00 +23°C° 0.8 mm 1 mps 651 mmHg 81%
    19:00 +21°C° 0.8 mm 1 mps 651 mmHg 92%
    20:00 +21°C° 0.2 mm 1 mps 652 mmHg 93%
    21:00 +18°C° 0.2 mm 0 mps 652 mmHg 94%
    22:00 +18°C° 0.2 mm 0 mps 653 mmHg 95%
    23:00 +18°C° 0 mm 0 mps 652 mmHg 95%

    28 April, Sunday

    Time Temperature Precipitation Wind Pressure Humidity
    00:00 +17°C° 0 mm 0 mps 652 mmHg 95%
    01:00 +17°C° 0 mm 0 mps 651 mmHg 95%
    02:00 +17°C° 0 mm 0 mps 651 mmHg 94%
    03:00 +17°C° 0 mm 0 mps 651 mmHg 94%
    04:00 +17°C° 0 mm 0 mps 651 mmHg 94%
    05:00 +18°C° 0 mm 0 mps 652 mmHg 91%
    06:00 +19°C° 0 mm 0 mps 652 mmHg 88%
    07:00 +20°C° 0 mm 0 mps 653 mmHg 85%
    08:00 +22°C° 0 mm 0 mps 654 mmHg 74%
    09:00 +23°C° 0 mm 0 mps 655 mmHg 63%
    10:00 +25°C° 0 mm 0 mps 655 mmHg 53%
    11:00 +26°C° 0 mm 0 mps 655 mmHg 49%
    12:00 +29°C° 0 mm 1 mps 654 mmHg 44%
    13:00 +30°C° 0 mm 1 mps 654 mmHg 40%
    14:00 +29°C° 0 mm 1 mps 654 mmHg 43%
    15:00 +28°C° 0 mm 1 mps 653 mmHg 46%
    16:00 +27°C° 0 mm 1 mps 652 mmHg 49%
    17:00 +25°C° 0 mm 1 mps 652 mmHg 59%
    18:00 +23°C° 0 mm 1 mps 652 mmHg 70%
    19:00 +19°C° 0 mm 0 mps 652 mmHg 80%
    20:00 +19°C° 0 mm 0 mps 652 mmHg 84%
    21:00 +18°C° 0 mm 0 mps 652 mmHg 87%
    22:00 +18°C° 0 mm 0 mps 652 mmHg 90%
    23:00 +17°C° 0 mm 0 mps 652 mmHg 91%

    29 April, Monday

    Time Temperature Precipitation Wind Pressure Humidity
    00:00 +17°C° 0 mm 0 mps 652 mmHg 92%
    01:00 +17°C° 0 mm 0 mps 651 mmHg 93%
    02:00 +17°C° 0 mm 0 mps 651 mmHg 93%
    03:00 +17°C° 0 mm 0 mps 651 mmHg 93%
    04:00 +17°C° 0 mm 0 mps 651 mmHg 92%
    05:00 +18°C° 0 mm 0 mps 652 mmHg 86%
    06:00 +19°C° 0 mm 0 mps 652 mmHg 80%
    07:00 +21°C° 0 mm 0 mps 653 mmHg 73%
    08:00 +24°C° 0 mm 0 mps 654 mmHg 61%
    09:00 +28°C° 0 mm 1 mps 655 mmHg 49%
    10:00 +31°C° 0 mm 1 mps 656 mmHg 37%
    11:00 +32°C° 0 mm 1 mps 656 mmHg 33%
    12:00 +33°C° 0 mm 1 mps 655 mmHg 29%
    13:00 +35°C° 0 mm 2 mps 655 mmHg 26%
    14:00 +32°C° 0 mm 2 mps 654 mmHg 33%
    15:00 +30°C° 0 mm 2 mps 653 mmHg 40%
    16:00 +28°C° 0 mm 2 mps 652 mmHg 47%
    17:00 +25°C° 0 mm 1 mps 652 mmHg 58%
    18:00 +23°C° 0 mm 1 mps 652 mmHg 68%
    19:00 +21°C° 0 mm 1 mps 652 mmHg 79%
    20:00 +18°C° 0 mm 0 mps 652 mmHg 81%
    21:00 +18°C° 0 mm 0 mps 652 mmHg 83%
    22:00 +17°C° 0 mm 0 mps 652 mmHg 85%
    23:00 +17°C° 0 mm 0 mps 652 mmHg 85%

    30 April, Tuesday

    Time Temperature Precipitation Wind Pressure Humidity
    00:00 +17°C° 0 mm 0 mps 651 mmHg 86%
    01:00 +17°C° 0 mm 0 mps 651 mmHg 86%
    02:00 +16°C° 0 mm 0 mps 651 mmHg 87%
    03:00 +16°C° 0 mm 0 mps 651 mmHg 87%
    04:00 +18°C° 0 mm 1 mps 650 mmHg 87%
    05:00 +18°C° 0 mm 0 mps 651 mmHg 80%
    06:00 +20°C° 0 mm 0 mps 652 mmHg 73%
    07:00 +21°C° 0 mm 0 mps 653 mmHg 66%
    08:00 +24°C° 0 mm 0 mps 654 mmHg 54%
    09:00 +29°C° 0 mm 1 mps 655 mmHg 42%
    10:00 +32°C° 0 mm 1 mps 656 mmHg 30%
    11:00 +32°C° 0 mm 1 mps 655 mmHg 28%
    12:00 +33°C° 0 mm 1 mps 655 mmHg 27%
    13:00 +34°C° 0 mm 2 mps 654 mmHg 26%
    14:00 +32°C° 0 mm 1 mps 653 mmHg 33%
    15:00 +30°C° 0 mm 1 mps 652 mmHg 39%
    16:00 +28°C° 0 mm 1 mps 651 mmHg 46%
    17:00 +26°C° 0 mm 1 mps 651 mmHg 55%
    18:00 +24°C° 0 mm 1 mps 651 mmHg 64%
    19:00 +23°C° 0 mm 1 mps 651 mmHg 74%
    20:00 +22°C° 0 mm 1 mps 651 mmHg 79%
    21:00 +19°C° 0 mm 0 mps 651 mmHg 84%
    22:00 +18°C° 0 mm 0 mps 652 mmHg 89%
    23:00 +18°C° 0 mm 0 mps 651 mmHg 87%
    Show more